SCP
0 0 0 0 0 0 0 0 0 0 0 0 0 0 0 0 0 0 0 0 0 0 0 0 0 0 0 0 0 0 0 0 0 0 0 0 0 0 0 0 0 0 0
0 0 0 0 0 0 0 0 0 0 0 0 0 0 0 0 0 0 0 0 0 0 0 0 0 0 0 0 0 0 0 0 0 0 0 0 0 0 0 0 0 0 0
0 0 0 0 0 0 0 0 0 0 0 0 0 0 0 0 0 0 0 0 0 0 0 0 0 0 0 0 0 0 0 0 0 0 0 0 0 0 0 0 0 0 0
0 0 0 0 0 0 0 0 0 0 0 0 0 0 0 0 0 0 0 0 0 0 0 0 0 0 0 0 0 0 0 0 0 0 0 0 0 0 0 0 0 0 0
0 0 0 0 0 0 0 0 0 0 0 0 0 0 0 0 0 0 0 0 0 0 0 0 0 0 0 0 0 0 0 0 0 0 0 0 0 0 0 0 0 0 0
-0 -0 0 0 0 0 0 0 0 0 0 -0 0 0 0 0 0 0 0 0 0 0 0 0 0 0 0 0 0 0 0 0 0 0 0 0 0 0 0 0 0 0 0
0 -0 0 0 0 0 0 0 0 -0 -0 0 0 0 0 0 0 0 0 0 0 0 0 0 0 0 0 0 0 0 0 0 0 0 0 0 0 0 0 0 0 0 0
0 0 0 0 0 0 0 0 -0 -0 0 0 0 0 0 0 0 0 0 0 0 0 0 0 0 0 0 0 0 0 0 0 0 0 0 0 0 0 0 0 0 0 0
0 0 0 0 0 0 -0 0 0 0 0 0 0 0 0 0 0 0 0 0 0 0 0 0 0 0 0 0 0 0 0 0 0 0 0 0 0 0 0 0 0 0 0
0 0 0 0 0 0 0 0 0 0 0 0 0 0 0 0 0 0 0 0 0 0 0 0 0 0 0 0 0 0 0 0 0 0 0 0 0 0 0 0 0 0 0
0 0 0 0 0 0 0 0 0 0 0 0 0 0 0 0 0 0 0 0 0 0 0 0 0 0 0 0 0 0 0 0 0 0 0 0 0 0 0 0 0 0 0
0 0 0 0 0 0 0 0 0 0 0 0 0 0 0 0 0 0 0 0 0 0 0 0 0 0 0 0 0 0 0 0 0 0 0 0 0 0 0 0 0 0 0
0 0 0 0 0 0 0 0 0 0 0 0 0 0 0 0 0 0 0 0 0 0 0 0 0 0 0 0 0 0 0 0 0 0 0 0 0 0 0 0 0 0 0
0 -0 0 0 0 0 0 0 0 0 0 0 0 0 0 0 0 0 0 0 0 0 0 0 0 0 0 0 0 0 0 0 0 0 0 0 0 0 0 0 0 0 0
0 -0 -0 -0 0 0 0 0 0 0 0 0 0 0 0 0 0 0 0 0 0 0 0 0 0 0 0 0 0 0 0 0 0 0 0 0 0 0 0 0 0 0 0
-0 0 0 0 -0 -0 0 0 -0 -0 -0 -0 -0 -0 -0 -0 -0 -0 0 0 0 0 0 0 0 0 0 0 0 0 0 0 0 0 0 0 0 0 0 0 0 0 0
0 -0 0 -0 -0 -0 -0 -0 -0 -0 -0 -0 -0 -0 -0 -0 0 0 0 0 0 0 0 0 0 0 0 0 0 0 0 0 0 0 0 0 0 0 0 0 0 0 0
-0 0 -0 0 0 0 -0 -0 0 0 0 0 -0 -0 -0 -0 0 0 0 0 0 0 0 0 0 0 0 0 0 0 0 0 0 0 0 0 0 0 0 0 0 0 0
-0 -0 -0 -0 -0 -0 -0 0 0 0 0 0 0 0 0 0 0 0 0 0 0 0 0 0 0 0 0 0 0 0 0 0 0 0 0 0 0 0 0 0 0 0 0
-0 0 -0 -0 0 0 0 0 0 0 0 0 0 0 0 0 0 0 0 0 0 0 0 0 0 0 0 0 0 0 0 0 0 0 0 0 0 0 0 0 0 0 0
0 -0 0 -0 0 0 0 0 0 0 0 0 0 0 0 0 0 0 0 0 0 0 0 0 0 0 0 0 0 0 0 0 0 0 0 0 0 0 0 0 0 0 0
0 0 0 0 0 0 0 0 0 0 0 0 0 0 0 0 0 0 0 0 0 0 0 0 0 0 0 0 0 0 0 0 0 0 0 0 0 0 0 0 0 0 0
0 0 0 0 0 0 0 0 0 0 0 0 0 0 0 0 0 0 0 0 0 0 0 0 0 0 0 0 0 0 0 0 0 0 0 0 0 0 0 0 0 0 0
0 0 0 0 0 0 0 0 0 0 0 0 0 0 0 0 0 0 0 0 0 0 0 0 0 0 0 0 0 0 0 0 0 0 0 0 0 0 0 0 0 0 0
0 0 0 0 0 0 0 0 0 0 0 0 0 0 0 0 0 0 0 0 0 0 0 0 0 0 0 0 0 0 0 0 0 0 0 0 0 0 0 0 0 0 0
0 0 0 0 0 0 0 0 0 0 0 0 0 0 0 0 0 0 0 0 0 0 0 0 0 0 0 0 0 0 0 0 0 0 0 0 0 0 0 0 0 0 0
Wind_Speed_500mb
74 78 82 83 86 91 90 90 83 83 87 94 89 77 95 93 95 92 94 96 87 81 81 79 78 78 82 92 94 91 96 81 82 75 71 65 60 57 60 63 65 61 60
66 72 79 81 81 81 85 90 82 86 85 88 84 83 97 97 101 97 96 101 91 86 84 80 76 78 83 90 76 81 87 96 86 92 89 81 72 67 84 82 75 65 61
59 62 69 78 80 84 85 92 95 72 95 88 82 87 99 112 107 106 106 93 94 83 83 82 79 85 89 103 91 83 83 78 77 84 86 86 86 80 83 79 74 67 62
52 49 57 66 75 79 87 89 103 76 84 89 85 96 94 107 108 112 106 96 91 84 83 83 80 91 98 96 99 100 84 76 61 63 74 75 79 84 88 88 79 69 65
54 39 42 65 71 73 77 85 103 78 75 81 86 99 105 106 108 104 99 88 88 81 80 90 85 89 112 95 95 91 72 70 62 55 57 57 63 75 91 89 80 75 74
71 45 0 28 41 55 67 76 94 74 78 89 93 105 103 105 98 93 92 86 80 73 75 74 70 79 105 100 91 76 75 78 67 60 54 54 60 60 65 83 84 79 73
83 70 36 29 33 33 44 53 69 78 76 110 106 110 95 81 74 86 86 81 72 76 72 70 71 81 109 109 94 86 71 60 56 48 52 56 51 53 54 78 79 82 75
89 92 69 58 48 50 53 50 59 60 92 102 85 74 76 68 66 65 63 65 72 69 67 65 66 80 106 112 108 109 96 74 68 55 47 48 52 52 58 46 64 67 63
102 104 95 82 62 59 58 59 69 92 81 98 98 94 98 78 57 59 60 57 61 63 58 53 52 55 67 90 108 105 102 96 89 77 69 61 54 51 52 53 58 56 59
103 100 91 93 110 99 93 99 106 108 104 109 94 79 81 68 59 58 58 61 52 57 48 40 44 44 48 52 69 67 63 74 88 84 86 74 61 65 55 61 49 50 63
90 89 106 114 109 105 108 111 108 119 127 120 117 101 93 76 61 49 52 45 41 49 53 39 38 34 38 46 55 58 50 53 63 64 64 61 66 65 64 61 50 45 52
92 94 99 102 99 99 99 102 109 105 100 113 110 105 96 86 74 64 56 49 40 39 42 33 31 32 30 37 43 43 42 40 45 52 57 54 54 54 54 58 58 55 55
87 96 97 96 96 100 102 103 100 98 98 91 90 90 87 72 69 61 56 55 47 49 42 36 26 23 26 32 32 31 31 36 39 44 45 45 45 44 47 53 55 51 45
81 85 87 94 97 98 100 99 96 92 87 87 84 79 71 66 61 49 43 40 38 37 37 38 33 29 27 27 27 25 27 26 30 33 38 40 41 42 42 41 40 40 36
70 75 79 81 84 88 91 88 88 83 79 80 75 69 66 67 59 49 44 39 33 29 26 28 27 25 26 27 25 25 24 25 27 30 33 38 40 40 38 36 33 32 31
67 70 69 69 70 72 72 72 75 73 70 71 69 66 62 53 45 43 40 37 33 29 25 28 24 23 23 24 22 23 24 25 26 29 32 33 37 40 39 39 36 35 34
62 61 60 60 60 59 58 60 61 57 57 61 59 57 54 48 44 40 36 33 31 26 32 33 29 22 18 18 18 17 17 20 21 25 27 31 34 36 39 43 42 40 37
50 51 52 52 51 50 48 47 45 47 48 50 50 47 45 40 36 34 32 30 33 32 31 29 26 21 18 16 15 18 22 21 20 21 24 27 30 34 42 46 45 43 42
41 43 45 44 44 43 41 41 40 38 40 41 36 33 34 34 32 31 27 27 29 28 27 25 22 19 17 14 11 10 13 15 19 21 23 24 29 34 42 45 45 43 42
35 36 36 36 35 35 34 34 32 31 29 27 26 28 26 22 22 28 29 27 24 21 18 17 16 13 13 11 10 9 9 11 15 18 20 23 27 32 39 44 46 46 44
29 30 30 31 31 30 28 27 26 23 20 17 15 15 14 13 15 18 20 20 19 16 13 11 10 10 10 8 6 5 8 10 13 16 20 24 28 33 36 40 45 46 44
21 22 23 24 24 23 21 20 19 18 15 13 11 8 6 4 4 5 6 8 9 9 8 5 5 4 3 2 4 7 9 11 13 15 19 23 28 32 37 42 45 47 44
16 16 16 17 16 15 14 14 11 9 7 5 3 2 4 6 6 6 6 6 4 2 1 2 4 7 8 6 6 9 11 12 14 16 20 26 31 35 39 43 48 50 46
17 16 15 14 13 14 13 12 11 11 9 7 5 5 7 9 10 12 14 15 14 12 11 11 11 12 14 13 11 11 15 17 19 20 21 25 31 36 40 44 48 48 48
20 20 20 20 19 18 18 17 15 13 11 10 9 9 9 10 12 14 17 19 19 18 16 15 15 16 18 20 19 18 20 22 24 25 25 27 31 36 41 47 50 50 50
26 27 27 26 25 24 23 22 21 21 19 17 14 13 12 13 14 16 18 21 23 23 21 17 15 14 15 17 19 20 21 24 27 29 28 28 32 39 45 51 52 54 53
Wind_Direction_500mb
283 275 270 263 257 247 244 247 235 234 237 235 235 238 222 214 217 220 220 218 211 214 216 218 218 223 224 226 225 221 212 199 188 185 194 198 206 212 221 229 228 223 224
290 279 270 263 255 247 239 238 226 233 227 234 234 234 220 216 219 218 211 213 209 210 214 213 213 216 216 207 202 202 205 199 191 192 195 201 202 212 218 216 216 221 222
297 282 269 261 253 244 235 231 217 225 226 226 229 225 211 215 216 214 215 207 208 212 211 209 207 211 207 198 186 183 188 189 192 190 191 204 213 220 212 212 213 213 220
311 291 268 253 244 238 232 228 214 215 225 225 228 212 217 212 219 210 213 210 205 208 211 209 208 206 198 191 196 194 191 191 197 212 217 215 213 208 206 207 206 209 216
341 318 260 246 239 235 228 223 215 215 220 224 223 211 212 210 211 208 209 202 207 205 210 207 208 205 195 190 184 180 182 183 183 177 185 190 198 204 202 203 209 209 208
2 9 214 235 221 222 220 217 214 216 220 213 202 204 200 208 207 214 204 200 202 202 200 203 208 214 198 189 184 185 190 190 191 188 188 190 197 197 213 209 207 208 209
17 34 90 147 179 194 207 214 211 216 203 201 206 199 193 205 211 204 202 193 189 195 192 192 196 199 196 189 177 177 191 203 214 213 225 219 204 206 203 210 214 217 216
23 37 67 88 122 167 178 184 191 195 198 192 177 170 164 165 178 168 181 178 178 178 180 186 190 197 199 197 187 188 197 203 207 208 217 217 218 219 216 216 227 220 221
37 43 51 60 91 108 122 135 145 165 149 151 155 154 148 153 171 165 178 173 162 166 173 186 185 190 194 206 210 205 205 210 222 232 231 231 229 229 227 224 221 222 224
42 48 47 59 80 78 85 96 106 112 108 127 128 122 129 130 143 157 153 150 161 159 167 172 184 193 192 197 199 198 202 217 224 225 222 225 227 237 227 220 221 220 216
47 50 58 67 71 76 84 87 93 98 99 101 108 105 108 116 125 131 145 150 155 154 144 151 164 174 185 192 199 201 203 209 221 218 214 218 226 225 224 220 216 224 217
46 51 58 64 69 73 78 83 85 88 89 89 99 98 99 99 106 111 119 125 136 136 137 156 146 147 162 181 187 196 205 202 203 202 205 205 209 212 214 213 214 221 217
43 50 56 63 64 68 71 73 76 82 87 86 86 86 90 96 98 102 105 108 109 116 117 118 130 155 170 165 172 181 203 199 199 201 204 204 207 206 205 205 209 212 212
45 47 51 56 61 63 67 70 71 74 76 79 79 81 87 89 89 90 94 99 101 103 105 109 110 119 132 136 146 158 167 176 185 195 195 193 193 193 192 198 200 199 201
52 53 51 51 54 58 60 60 68 65 69 77 78 76 76 76 74 80 85 91 97 106 117 117 123 125 126 125 135 140 146 153 164 167 177 182 180 182 183 186 187 194 204
51 52 54 56 55 58 60 64 66 66 68 70 71 71 76 79 81 82 85 87 90 96 115 118 131 140 136 139 148 152 152 153 158 166 172 182 186 188 190 186 193 197 200
48 51 53 55 58 58 60 62 65 69 72 75 75 78 76 78 77 82 88 90 91 97 97 101 109 121 136 160 166 168 169 164 165 167 172 183 189 191 195 196 194 198 194
40 47 49 51 54 60 60 61 65 67 68 70 73 76 84 84 81 81 82 92 92 85 82 81 85 90 102 127 156 171 179 179 181 184 189 195 197 199 197 200 200 199 194
32 38 41 43 46 47 50 53 55 56 60 67 73 74 73 77 80 84 84 80 80 87 89 88 80 78 82 97 118 143 161 171 177 186 190 195 199 202 201 204 201 196 191
17 23 30 37 42 41 46 51 52 51 49 52 56 60 64 67 69 72 76 79 82 84 82 76 77 81 84 85 105 127 147 166 177 183 190 196 199 200 202 202 197 191 187
6 8 13 17 22 31 37 38 43 54 63 64 60 60 57 50 57 65 71 74 77 84 91 102 91 72 71 86 95 126 152 167 182 197 200 199 201 200 201 200 195 192 189
349 353 358 3 8 13 22 28 31 31 36 50 57 63 56 45 48 74 82 81 78 75 83 105 138 141 99 123 164 183 195 197 200 198 201 201 200 200 199 197 193 190 188
329 333 338 344 349 355 358 2 10 19 21 23 34 125 167 192 197 205 210 212 211 203 212 214 222 218 220 221 219 215 207 208 211 213 213 208 203 200 197 194 191 188 187
310 313 315 316 317 318 319 322 324 326 327 323 302 261 228 216 210 212 214 215 219 222 228 236 235 234 231 233 236 233 226 214 210 211 212 215 209 203 198 194 189 188 185
298 297 295 293 292 289 286 283 280 277 274 275 275 271 260 242 228 221 220 221 223 226 229 235 242 246 248 246 246 243 230 222 211 209 208 207 210 205 196 190 188 184 177
292 292 290 289 286 282 279 274 270 267 262 257 256 257 258 252 241 228 222 220 219 223 227 234 243 249 248 241 234 228 224 217 210 205 202 204 202 198 193 186 182 173 173
Wind_Speed_850mb
74 78 82 83 86 91 90 90 83 83 87 94 89 77 95 93 95 92 94 96 87 81 81 79 78 78 82 92 94 91 96 81 82 75 71 65 60 57 60 63 65 61 60
66 72 79 81 81 81 85 90 82 86 85 88 84 83 97 97 101 97 96 101 91 86 84 80 76 78 83 90 76 81 87 96 86 92 89 81 72 67 84 82 75 65 61
59 62 69 78 80 84 85 92 95 72 95 88 82 87 99 112 107 106 106 93 94 83 83 82 79 85 89 103 91 83 83 78 77 84 86 86 86 80 83 79 74 67 62
52 49 57 66 75 79 87 89 103 76 84 89 85 96 94 107 108 112 106 96 91 84 83 83 80 91 98 96 99 100 84 76 61 63 74 75 79 84 88 88 79 69 65
54 39 42 65 71 73 77 85 103 78 75 81 86 99 105 106 108 104 99 88 88 81 80 90 85 89 112 95 95 91 72 70 62 55 57 57 63 75 91 89 80 75 74
71 45 0 28 41 55 67 76 94 74 78 89 93 105 103 105 98 93 92 86 80 73 75 74 70 79 105 100 91 76 75 78 67 60 54 54 60 60 65 83 84 79 73
83 70 36 29 33 33 44 53 69 78 76 110 106 110 95 81 74 86 86 81 72 76 72 70 71 81 109 109 94 86 71 60 56 48 52 56 51 53 54 78 79 82 75
89 92 69 58 48 50 53 50 59 60 92 102 85 74 76 68 66 65 63 65 72 69 67 65 66 80 106 112 108 109 96 74 68 55 47 48 52 52 58 46 64 67 63
102 104 95 82 62 59 58 59 69 92 81 98 98 94 98 78 57 59 60 57 61 63 58 53 52 55 67 90 108 105 102 96 89 77 69 61 54 51 52 53 58 56 59
103 100 91 93 110 99 93 99 106 108 104 109 94 79 81 68 59 58 58 61 52 57 48 40 44 44 48 52 69 67 63 74 88 84 86 74 61 65 55 61 49 50 63
90 89 106 114 109 105 108 111 108 119 127 120 117 101 93 76 61 49 52 45 41 49 53 39 38 34 38 46 55 58 50 53 63 64 64 61 66 65 64 61 50 45 52
92 94 99 102 99 99 99 102 109 105 100 113 110 105 96 86 74 64 56 49 40 39 42 33 31 32 30 37 43 43 42 40 45 52 57 54 54 54 54 58 58 55 55
87 96 97 96 96 100 102 103 100 98 98 91 90 90 87 72 69 61 56 55 47 49 42 36 26 23 26 32 32 31 31 36 39 44 45 45 45 44 47 53 55 51 45
81 85 87 94 97 98 100 99 96 92 87 87 84 79 71 66 61 49 43 40 38 37 37 38 33 29 27 27 27 25 27 26 30 33 38 40 41 42 42 41 40 40 36
70 75 79 81 84 88 91 88 88 83 79 80 75 69 66 67 59 49 44 39 33 29 26 28 27 25 26 27 25 25 24 25 27 30 33 38 40 40 38 36 33 32 31
67 70 69 69 70 72 72 72 75 73 70 71 69 66 62 53 45 43 40 37 33 29 25 28 24 23 23 24 22 23 24 25 26 29 32 33 37 40 39 39 36 35 34
62 61 60 60 60 59 58 60 61 57 57 61 59 57 54 48 44 40 36 33 31 26 32 33 29 22 18 18 18 17 17 20 21 25 27 31 34 36 39 43 42 40 37
50 51 52 52 51 50 48 47 45 47 48 50 50 47 45 40 36 34 32 30 33 32 31 29 26 21 18 16 15 18 22 21 20 21 24 27 30 34 42 46 45 43 42
41 43 45 44 44 43 41 41 40 38 40 41 36 33 34 34 32 31 27 27 29 28 27 25 22 19 17 14 11 10 13 15 19 21 23 24 29 34 42 45 45 43 42
35 36 36 36 35 35 34 34 32 31 29 27 26 28 26 22 22 28 29 27 24 21 18 17 16 13 13 11 10 9 9 11 15 18 20 23 27 32 39 44 46 46 44
29 30 30 31 31 30 28 27 26 23 20 17 15 15 14 13 15 18 20 20 19 16 13 11 10 10 10 8 6 5 8 10 13 16 20 24 28 33 36 40 45 46 44
21 22 23 24 24 23 21 20 19 18 15 13 11 8 6 4 4 5 6 8 9 9 8 5 5 4 3 2 4 7 9 11 13 15 19 23 28 32 37 42 45 47 44
16 16 16 17 16 15 14 14 11 9 7 5 3 2 4 6 6 6 6 6 4 2 1 2 4 7 8 6 6 9 11 12 14 16 20 26 31 35 39 43 48 50 46
17 16 15 14 13 14 13 12 11 11 9 7 5 5 7 9 10 12 14 15 14 12 11 11 11 12 14 13 11 11 15 17 19 20 21 25 31 36 40 44 48 48 48
20 20 20 20 19 18 18 17 15 13 11 10 9 9 9 10 12 14 17 19 19 18 16 15 15 16 18 20 19 18 20 22 24 25 25 27 31 36 41 47 50 50 50
26 27 27 26 25 24 23 22 21 21 19 17 14 13 12 13 14 16 18 21 23 23 21 17 15 14 15 17 19 20 21 24 27 29 28 28 32 39 45 51 52 54 53
Wind_Direction_850mb
283 275 270 263 257 247 244 247 235 234 237 235 235 238 222 214 217 220 220 218 211 214 216 218 218 223 224 226 225 221 212 199 188 185 194 198 206 212 221 229 228 223 224
290 279 270 263 255 247 239 238 226 233 227 234 234 234 220 216 219 218 211 213 209 210 214 213 213 216 216 207 202 202 205 199 191 192 195 201 202 212 218 216 216 221 222
297 282 269 261 253 244 235 231 217 225 226 226 229 225 211 215 216 214 215 207 208 212 211 209 207 211 207 198 186 183 188 189 192 190 191 204 213 220 212 212 213 213 220
311 291 268 253 244 238 232 228 214 215 225 225 228 212 217 212 219 210 213 210 205 208 211 209 208 206 198 191 196 194 191 191 197 212 217 215 213 208 206 207 206 209 216
341 318 260 246 239 235 228 223 215 215 220 224 223 211 212 210 211 208 209 202 207 205 210 207 208 205 195 190 184 180 182 183 183 177 185 190 198 204 202 203 209 209 208
2 9 214 235 221 222 220 217 214 216 220 213 202 204 200 208 207 214 204 200 202 202 200 203 208 214 198 189 184 185 190 190 191 188 188 190 197 197 213 209 207 208 209
17 34 90 147 179 194 207 214 211 216 203 201 206 199 193 205 211 204 202 193 189 195 192 192 196 199 196 189 177 177 191 203 214 213 225 219 204 206 203 210 214 217 216
23 37 67 88 122 167 178 184 191 195 198 192 177 170 164 165 178 168 181 178 178 178 180 186 190 197 199 197 187 188 197 203 207 208 217 217 218 219 216 216 227 220 221
37 43 51 60 91 108 122 135 145 165 149 151 155 154 148 153 171 165 178 173 162 166 173 186 185 190 194 206 210 205 205 210 222 232 231 231 229 229 227 224 221 222 224
42 48 47 59 80 78 85 96 106 112 108 127 128 122 129 130 143 157 153 150 161 159 167 172 184 193 192 197 199 198 202 217 224 225 222 225 227 237 227 220 221 220 216
47 50 58 67 71 76 84 87 93 98 99 101 108 105 108 116 125 131 145 150 155 154 144 151 164 174 185 192 199 201 203 209 221 218 214 218 226 225 224 220 216 224 217
46 51 58 64 69 73 78 83 85 88 89 89 99 98 99 99 106 111 119 125 136 136 137 156 146 147 162 181 187 196 205 202 203 202 205 205 209 212 214 213 214 221 217
43 50 56 63 64 68 71 73 76 82 87 86 86 86 90 96 98 102 105 108 109 116 117 118 130 155 170 165 172 181 203 199 199 201 204 204 207 206 205 205 209 212 212
45 47 51 56 61 63 67 70 71 74 76 79 79 81 87 89 89 90 94 99 101 103 105 109 110 119 132 136 146 158 167 176 185 195 195 193 193 193 192 198 200 199 201
52 53 51 51 54 58 60 60 68 65 69 77 78 76 76 76 74 80 85 91 97 106 117 117 123 125 126 125 135 140 146 153 164 167 177 182 180 182 183 186 187 194 204
51 52 54 56 55 58 60 64 66 66 68 70 71 71 76 79 81 82 85 87 90 96 115 118 131 140 136 139 148 152 152 153 158 166 172 182 186 188 190 186 193 197 200
48 51 53 55 58 58 60 62 65 69 72 75 75 78 76 78 77 82 88 90 91 97 97 101 109 121 136 160 166 168 169 164 165 167 172 183 189 191 195 196 194 198 194
40 47 49 51 54 60 60 61 65 67 68 70 73 76 84 84 81 81 82 92 92 85 82 81 85 90 102 127 156 171 179 179 181 184 189 195 197 199 197 200 200 199 194
32 38 41 43 46 47 50 53 55 56 60 67 73 74 73 77 80 84 84 80 80 87 89 88 80 78 82 97 118 143 161 171 177 186 190 195 199 202 201 204 201 196 191
17 23 30 37 42 41 46 51 52 51 49 52 56 60 64 67 69 72 76 79 82 84 82 76 77 81 84 85 105 127 147 166 177 183 190 196 199 200 202 202 197 191 187
6 8 13 17 22 31 37 38 43 54 63 64 60 60 57 50 57 65 71 74 77 84 91 102 91 72 71 86 95 126 152 167 182 197 200 199 201 200 201 200 195 192 189
349 353 358 3 8 13 22 28 31 31 36 50 57 63 56 45 48 74 82 81 78 75 83 105 138 141 99 123 164 183 195 197 200 198 201 201 200 200 199 197 193 190 188
329 333 338 344 349 355 358 2 10 19 21 23 34 125 167 192 197 205 210 212 211 203 212 214 222 218 220 221 219 215 207 208 211 213 213 208 203 200 197 194 191 188 187
310 313 315 316 317 318 319 322 324 326 327 323 302 261 228 216 210 212 214 215 219 222 228 236 235 234 231 233 236 233 226 214 210 211 212 215 209 203 198 194 189 188 185
298 297 295 293 292 289 286 283 280 277 274 275 275 271 260 242 228 221 220 221 223 226 229 235 242 246 248 246 246 243 230 222 211 209 208 207 210 205 196 190 188 184 177
292 292 290 289 286 282 279 274 270 267 262 257 256 257 258 252 241 228 222 220 219 223 227 234 243 249 248 241 234 228 224 217 210 205 202 204 202 198 193 186 182 173 173